User: anonymous   Login
Location: Unspecified
(0.0000°N, 0.0000°E)
Time: 02:21:00
(UTC+00:00)
Language:

Altair - Orbit

View from above orbital plane
View from above orbital plane
View from above satellite
View from above satellite

Ground track
Ground track

The orbit data is extracted from the following two-line orbital elements,

1    50U 60009B   17234.60410918 -.00000084 +00000-0 +21725-4 0  9990
2    50 047.2315 077.5538 0113716 136.3017 224.6842 12.20101680544488
Epoch (UTC): 22 August 2017 14:29:55
Eccentricity: 0.0113716
inclination: 47.2315°
perigee height: 1501 km
apogee height: 1683 km
right ascension of ascending node: 77.5538°
argument of perigee: 136.3017°
revolutions per day: 12.20101680
mean anomaly at epoch: 224.6842°
orbit number at epoch: 54448

The dashed part of the orbit path shows where the satellite is in the earth's shadow,  

DLR